Time,TemperatureF,DewpointF,PressureIn,WindDirection,WindDirectionDegrees,WindSpeedMPH,WindSpeedGustMPH,Humidity,HourlyPrecipIn,Conditions,Clouds,dailyrainin,SoftwareType,DateUTC
2013-01-18 00:00:00,33.2,29.5,30.16,NNW,330,0.0,0.0,86,0.01,,SKC,1.42,VWS V14.01,2013-01-18 05:00:00,
2013-01-18 00:01:00,33.4,29.7,30.15,NNW,334,0.0,0.0,86,0.01,,SKC,1.42,VWS V14.01,2013-01-18 05:01:00,
2013-01-18 00:02:00,33.2,29.5,30.15,NNW,334,0.0,0.0,86,0.01,,SKC,0.00,VWS V14.01,2013-01-18 05:02:00,
2013-01-18 00:03:00,33.2,29.5,30.15,NNW,332,0.0,0.0,86,0.01,,SKC,0.00,VWS V14.01,2013-01-18 05:03:00,
2013-01-18 00:08:00,33.5,28.9,30.15,WNW,283,0.0,0.0,83,0.00,,SKC,0.00,VWS V14.01,2013-01-18 05:08:00,
2013-01-18 00:13:00,33.8,28.3,30.15,West,271,0.0,0.0,80,0.00,,SKC,0.00,VWS V14.01,2013-01-18 05:13:00,
2013-01-18 00:18:00,34.0,27.9,30.18,NW,307,0.0,0.0,78,0.00,,SKC,0.00,VWS V14.01,2013-01-18 05:18:00,
2013-01-18 00:23:00,34.1,28.3,30.18,NW,314,0.0,0.0,79,0.00,,SKC,0.00,VWS V14.01,2013-01-18 05:23:00,
2013-01-18 00:28:00,34.0,28.2,30.18,NW,314,0.0,0.0,79,0.00,,SKC,0.00,VWS V14.01,2013-01-18 05:28:00,
2013-01-18 00:33:00,34.0,26.9,30.18,North,359,0.0,0.0,75,0.00,,SKC,0.00,VWS V14.01,2013-01-18 05:33:00,
2013-01-18 00:38:00,34.0,26.9,30.18,North,355,0.0,0.0,75,0.00,,SKC,0.00,VWS V14.01,2013-01-18 05:38:00,
2013-01-18 00:43:00,33.8,26.7,30.18,SSE,168,0.0,0.0,75,0.00,,SKC,0.00,VWS V14.01,2013-01-18 05:43:00,
2013-01-18 00:48:00,33.8,26.4,30.18,South,183,0.0,0.0,74,0.00,,SKC,0.00,VWS V14.01,2013-01-18 05:48:00,
2013-01-18 00:53:00,33.5,27.4,30.18,South,183,0.0,0.0,78,0.00,,SKC,0.00,VWS V14.01,2013-01-18 05:53:00,
2013-01-18 00:58:00,33.5,27.1,30.18,WSW,250,0.0,0.0,77,0.00,,SKC,0.00,VWS V14.01,2013-01-18 05:58:00,
2013-01-18 01:03:00,33.5,25.5,30.19,West,279,0.0,0.0,72,0.00,,SKC,0.00,VWS V14.01,2013-01-18 06:03:00,
2013-01-18 01:08:00,33.5,25.5,30.19,NW,319,0.0,0.0,72,0.00,,SKC,0.00,VWS V14.01,2013-01-18 06:08:00,
2013-01-18 01:13:00,33.4,25.0,30.19,North,359,0.0,0.0,71,0.00,,SKC,0.00,VWS V14.01,2013-01-18 06:13:00,
2013-01-18 01:18:00,33.4,25.7,30.20,West,259,0.0,0.0,73,0.00,,SKC,0.00,VWS V14.01,2013-01-18 06:18:00,
2013-01-18 01:23:00,33.4,25.0,30.20,NW,308,0.0,0.0,71,0.00,,SKC,0.00,VWS V14.01,2013-01-18 06:23:00,
2013-01-18 01:28:00,33.4,24.3,30.20,SW,230,0.0,0.0,69,0.00,,SKC,0.00,VWS V14.01,2013-01-18 06:28:00,
2013-01-18 01:33:00,33.4,24.3,30.21,WNW,288,0.0,0.0,69,0.00,,SKC,0.00,VWS V14.01,2013-01-18 06:33:00,
2013-01-18 01:38:00,33.4,25.0,30.21,WNW,297,0.0,0.0,71,0.00,,SKC,0.00,VWS V14.01,2013-01-18 06:38:00,
2013-01-18 01:43:00,33.1,24.7,30.21,NNW,334,0.0,0.0,71,0.00,,SKC,0.00,VWS V14.01,2013-01-18 06:43:00,
2013-01-18 01:48:00,32.9,24.9,30.22,NNW,342,0.0,0.0,72,0.00,,SKC,0.00,VWS V14.01,2013-01-18 06:48:00,
2013-01-18 01:53:00,32.9,23.9,30.22,NW,319,0.0,0.0,69,0.00,,SKC,0.00,VWS V14.01,2013-01-18 06:53:00,
2013-01-18 01:58:00,32.9,25.2,30.22,North,359,0.0,0.0,73,0.00,,SKC,0.00,VWS V14.01,2013-01-18 06:58:00,
2013-01-18 02:03:00,32.8,24.5,30.23,NW,316,0.0,0.0,71,0.00,,SKC,0.00,VWS V14.01,2013-01-18 07:03:00,
2013-01-18 02:08:00,32.7,24.4,30.23,NW,317,0.0,0.0,71,0.00,,SKC,0.00,VWS V14.01,2013-01-18 07:08:00,
2013-01-18 02:13:00,32.7,24.0,30.23,WNW,298,0.0,0.0,70,0.00,,SKC,0.00,VWS V14.01,2013-01-18 07:13:00,
2013-01-18 02:18:00,32.7,23.7,30.24,NW,312,0.0,0.0,69,0.00,,SKC,0.00,VWS V14.01,2013-01-18 07:18:00,
2013-01-18 02:23:00,32.7,23.7,30.24,WNW,291,0.0,0.0,69,0.00,,SKC,0.00,VWS V14.01,2013-01-18 07:23:00,
2013-01-18 02:28:00,32.7,23.3,30.24,NW,326,0.0,0.0,68,0.00,,SKC,0.00,VWS V14.01,2013-01-18 07:28:00,
2013-01-18 02:33:00,32.7,23.0,30.24,NNW,335,0.0,0.0,67,0.00,,SKC,0.00,VWS V14.01,2013-01-18 07:33:00,
2013-01-18 02:38:00,32.4,23.4,30.24,NW,316,0.0,0.0,69,0.00,,SKC,0.00,VWS V14.01,2013-01-18 07:38:00,
2013-01-18 02:43:00,32.4,23.4,30.24,West,273,0.0,0.0,69,0.00,,SKC,0.00,VWS V14.01,2013-01-18 07:43:00,
2013-01-18 02:48:00,32.2,22.8,30.26,WNW,293,0.0,0.0,68,0.00,,SKC,0.00,VWS V14.01,2013-01-18 07:48:00,
2013-01-18 02:53:00,32.2,23.2,30.26,WNW,290,0.0,0.0,69,0.00,,SKC,0.00,VWS V14.01,2013-01-18 07:53:00,
2013-01-18 02:58:00,32.1,22.8,30.26,WNW,293,0.0,0.0,68,0.00,,SKC,0.00,VWS V14.01,2013-01-18 07:58:00,
2013-01-18 03:03:00,31.9,22.9,30.26,WNW,298,0.0,0.0,69,0.00,,SKC,0.00,VWS V14.01,2013-01-18 08:03:00,
2013-01-18 03:08:00,31.9,22.5,30.26,WNW,302,0.0,0.0,68,0.00,,SKC,0.00,VWS V14.01,2013-01-18 08:08:00,
2013-01-18 03:13:00,32.1,22.8,30.26,WSW,246,0.0,0.0,68,0.00,,SKC,0.00,VWS V14.01,2013-01-18 08:13:00,
2013-01-18 03:18:00,31.8,22.8,30.26,West,279,0.0,0.0,69,0.00,,SKC,0.00,VWS V14.01,2013-01-18 08:18:00,
2013-01-18 03:23:00,31.8,22.1,30.26,West,280,0.0,0.0,67,0.00,,SKC,0.00,VWS V14.01,2013-01-18 08:23:00,
2013-01-18 03:28:00,31.9,22.9,30.26,West,280,0.0,0.0,69,0.00,,SKC,0.00,VWS V14.01,2013-01-18 08:28:00,
2013-01-18 03:33:00,31.8,22.5,30.26,West,280,0.0,0.0,68,0.00,,SKC,0.00,VWS V14.01,2013-01-18 08:33:00,
2013-01-18 03:38:00,31.6,22.6,30.26,West,272,0.0,0.0,69,0.00,,SKC,0.00,VWS V14.01,2013-01-18 08:38:00,
2013-01-18 03:43:00,31.2,23.2,30.26,West,272,0.0,0.0,72,0.00,,SKC,0.00,VWS V14.01,2013-01-18 08:43:00,
2013-01-18 03:47:00,31.0,22.0,30.27,West,272,0.0,0.0,69,0.00,,SKC,0.00,VWS V14.01,2013-01-18 08:47:00,
2013-01-18 03:52:00,31.2,22.2,30.27,West,264,0.0,0.0,69,0.00,,SKC,0.00,VWS V14.01,2013-01-18 08:52:00,
2013-01-18 03:57:00,31.3,22.0,30.27,WNW,286,0.0,0.0,68,0.00,,SKC,0.00,VWS V14.01,2013-01-18 08:57:00,
2013-01-18 04:02:00,31.6,22.3,30.26,WNW,282,0.0,0.0,68,0.00,,SKC,0.00,VWS V14.01,2013-01-18 09:02:00,
2013-01-18 04:07:00,31.5,21.5,30.26,West,279,0.0,0.0,66,0.00,,SKC,0.00,VWS V14.01,2013-01-18 09:07:00,
2013-01-18 04:12:00,31.5,22.2,30.26,WNW,300,0.0,0.0,68,0.00,,SKC,0.00,VWS V14.01,2013-01-18 09:12:00,
2013-01-18 04:17:00,31.3,22.3,30.26,West,273,0.0,0.0,69,0.00,,SKC,0.00,VWS V14.01,2013-01-18 09:17:00,
2013-01-18 04:22:00,31.2,22.2,30.26,West,266,0.0,0.0,69,0.00,,SKC,0.00,VWS V14.01,2013-01-18 09:22:00,
2013-01-18 04:27:00,31.2,22.2,30.26,West,265,0.0,0.0,69,0.00,,SKC,0.00,VWS V14.01,2013-01-18 09:27:00,
2013-01-18 04:32:00,31.0,21.7,30.26,West,262,0.0,0.0,68,0.00,,SKC,0.00,VWS V14.01,2013-01-18 09:32:00,
2013-01-18 04:37:00,31.0,22.0,30.26,West,269,0.0,0.0,69,0.00,,SKC,0.00,VWS V14.01,2013-01-18 09:37:00,
2013-01-18 04:42:00,31.0,21.7,30.26,NW,319,0.0,0.0,68,0.00,,SKC,0.00,VWS V14.01,2013-01-18 09:42:00,
2013-01-18 04:47:00,31.2,21.5,30.27,West,269,0.0,0.0,67,0.00,,SKC,0.00,VWS V14.01,2013-01-18 09:47:00,
2013-01-18 04:52:00,31.3,21.3,30.27,West,277,0.0,0.0,66,0.00,,SKC,0.00,VWS V14.01,2013-01-18 09:52:00,
2013-01-18 04:57:00,31.6,21.2,30.27,West,281,0.0,0.0,65,0.00,,SKC,0.00,VWS V14.01,2013-01-18 09:57:00,
2013-01-18 05:02:00,31.5,21.5,30.26,West,260,0.0,0.0,66,0.00,,SKC,0.00,VWS V14.01,2013-01-18 10:02:00,
2013-01-18 05:07:00,31.5,21.5,30.26,West,261,0.0,0.0,66,0.00,,SKC,0.00,VWS V14.01,2013-01-18 10:07:00,
2013-01-18 05:12:00,31.2,21.2,30.26,West,261,0.0,0.0,66,0.00,,SKC,0.00,VWS V14.01,2013-01-18 10:12:00,
2013-01-18 05:17:00,31.0,21.7,30.27,West,261,0.0,0.0,68,0.00,,SKC,0.00,VWS V14.01,2013-01-18 10:17:00,
2013-01-18 05:22:00,30.9,21.9,30.27,West,261,0.0,0.0,69,0.00,,SKC,0.00,VWS V14.01,2013-01-18 10:22:00,
2013-01-18 05:27:00,30.6,21.6,30.27,West,261,0.0,0.0,69,0.00,,SKC,0.00,VWS V14.01,2013-01-18 10:27:00,
2013-01-18 05:32:00,30.6,21.3,30.27,West,262,0.0,0.0,68,0.00,,SKC,0.00,VWS V14.01,2013-01-18 10:32:00,
2013-01-18 05:37:00,30.9,20.5,30.27,West,262,0.0,0.0,65,0.00,,SKC,0.00,VWS V14.01,2013-01-18 10:37:00,
2013-01-18 05:42:00,30.9,20.9,30.27,West,262,0.0,0.0,66,0.00,,SKC,0.00,VWS V14.01,2013-01-18 10:42:00,
2013-01-18 05:47:00,30.7,20.3,30.27,West,262,0.0,0.0,65,0.00,,SKC,0.00,VWS V14.01,2013-01-18 10:47:00,
2013-01-18 05:52:00,30.7,21.1,30.27,WSW,255,0.0,0.0,67,0.00,,SKC,0.00,VWS V14.01,2013-01-18 10:52:00,
2013-01-18 05:57:00,30.7,19.2,30.27,WSW,258,0.0,0.0,62,0.00,,SKC,0.00,VWS V14.01,2013-01-18 10:57:00,
2013-01-18 06:02:00,30.9,19.4,30.27,WSW,258,0.0,0.0,62,0.00,,SKC,0.00,VWS V14.01,2013-01-18 11:02:00,
2013-01-18 06:07:00,30.9,20.5,30.27,WSW,258,0.0,0.0,65,0.00,,SKC,0.00,VWS V14.01,2013-01-18 11:07:00,
2013-01-18 06:12:00,31.0,19.1,30.27,WSW,258,0.0,0.0,61,0.00,,SKC,0.00,VWS V14.01,2013-01-18 11:12:00,
2013-01-18 06:17:00,30.9,20.5,30.29,WSW,258,0.0,0.0,65,0.00,,SKC,0.00,VWS V14.01,2013-01-18 11:17:00,
2013-01-18 06:22:00,30.7,20.7,30.29,WSW,258,0.0,0.0,66,0.00,,SKC,0.00,VWS V14.01,2013-01-18 11:22:00,
2013-01-18 06:27:00,30.4,20.8,30.29,WSW,257,0.0,0.0,67,0.00,,SKC,0.00,VWS V14.01,2013-01-18 11:27:00,
2013-01-18 06:32:00,30.3,21.0,30.29,WSW,257,0.0,0.0,68,0.00,,SKC,0.00,VWS V14.01,2013-01-18 11:32:00,
2013-01-18 06:37:00,30.3,20.3,30.29,WSW,245,0.0,0.0,66,0.00,,SKC,0.00,VWS V14.01,2013-01-18 11:37:00,
2013-01-18 06:42:00,30.6,19.9,30.29,SW,224,0.0,0.0,64,0.00,,SKC,0.00,VWS V14.01,2013-01-18 11:42:00,
2013-01-18 06:47:00,30.9,19.8,30.30,SW,224,0.0,0.0,63,0.00,,SKC,0.00,VWS V14.01,2013-01-18 11:47:00,
2013-01-18 06:52:00,30.9,19.8,30.30,SW,224,0.0,0.0,63,0.00,,SKC,0.00,VWS V14.01,2013-01-18 11:52:00,
2013-01-18 06:57:00,30.7,20.0,30.30,SW,224,0.0,0.0,64,0.00,,SKC,0.00,VWS V14.01,2013-01-18 11:57:00,
2013-01-18 07:02:00,30.7,20.3,30.31,SW,223,0.0,0.0,65,0.00,,SKC,0.00,VWS V14.01,2013-01-18 12:02:00,
2013-01-18 07:07:00,30.1,21.9,30.31,SW,219,0.0,0.0,71,0.00,,SKC,0.00,VWS V14.01,2013-01-18 12:07:00,
2013-01-18 07:12:00,29.7,22.8,30.31,West,273,0.0,0.0,75,0.00,,SKC,0.00,VWS V14.01,2013-01-18 12:12:00,
2013-01-18 07:17:00,29.4,21.5,30.33,West,259,0.0,0.0,72,0.00,,SKC,0.00,VWS V14.01,2013-01-18 12:17:00,
2013-01-18 07:22:00,29.0,21.8,30.33,West,261,0.0,0.0,74,0.00,,SKC,0.00,VWS V14.01,2013-01-18 12:22:00,
2013-01-18 07:27:00,28.8,20.6,30.33,West,261,0.0,0.0,71,0.00,,SKC,0.00,VWS V14.01,2013-01-18 12:27:00,
2013-01-18 07:32:00,29.0,22.7,30.33,West,261,0.0,0.0,77,0.00,,SKC,0.00,VWS V14.01,2013-01-18 12:32:00,
2013-01-18 07:37:00,29.3,20.7,30.33,West,261,0.0,0.0,70,0.00,,SKC,0.00,VWS V14.01,2013-01-18 12:37:00,
2013-01-18 07:42:00,29.7,21.1,30.33,WNW,293,0.0,0.0,70,0.00,,SKC,0.00,VWS V14.01,2013-01-18 12:42:00,
2013-01-18 07:47:00,30.0,19.7,30.34,WNW,290,0.0,0.0,65,0.00,,SKC,0.00,VWS V14.01,2013-01-18 12:47:00,
2013-01-18 07:52:00,30.3,20.0,30.34,WNW,295,0.0,0.0,65,0.00,,SKC,0.00,VWS V14.01,2013-01-18 12:52:00,
2013-01-18 07:57:00,30.3,20.0,30.34,NW,307,0.0,0.0,65,0.00,,SKC,0.00,VWS V14.01,2013-01-18 12:57:00,
2013-01-18 08:02:00,30.6,18.8,30.35,NNW,330,0.0,0.0,61,0.00,,SKC,0.00,VWS V14.01,2013-01-18 13:02:00,
2013-01-18 08:07:00,31.0,19.5,30.35,NW,316,0.0,0.0,62,0.00,,SKC,0.00,VWS V14.01,2013-01-18 13:07:00,
2013-01-18 08:12:00,31.3,18.6,30.35,NW,324,0.0,0.0,59,0.00,,SKC,0.00,VWS V14.01,2013-01-18 13:12:00,
2013-01-18 08:17:00,31.5,20.0,30.36,NW,324,0.0,0.0,62,0.00,,SKC,0.00,VWS V14.01,2013-01-18 13:17:00,
2013-01-18 08:22:00,31.6,19.7,30.36,North,353,0.0,0.0,61,0.00,,SKC,0.00,VWS V14.01,2013-01-18 13:22:00,
2013-01-18 08:27:00,31.9,19.2,30.36,North,353,0.0,0.0,59,0.00,,SKC,0.00,VWS V14.01,2013-01-18 13:27:00,
2013-01-18 08:32:00,32.1,19.0,30.36,NW,319,0.0,0.0,58,0.00,,SKC,0.00,VWS V14.01,2013-01-18 13:32:00,
2013-01-18 08:37:00,32.2,19.1,30.36,North,0,0.0,0.0,58,0.00,,SKC,0.00,VWS V14.01,2013-01-18 13:37:00,
2013-01-18 08:42:00,32.5,21.3,30.36,North,0,0.0,0.0,63,0.00,,SKC,0.00,VWS V14.01,2013-01-18 13:42:00,
2013-01-18 08:47:00,32.5,20.6,30.37,NNW,331,0.0,0.0,61,0.00,,SKC,0.00,VWS V14.01,2013-01-18 13:47:00,
2013-01-18 08:52:00,32.7,19.6,30.37,NW,314,0.0,0.0,58,0.00,,SKC,0.00,VWS V14.01,2013-01-18 13:52:00,
2013-01-18 08:57:00,32.7,19.2,30.37,NW,316,0.0,0.0,57,0.00,,SKC,0.00,VWS V14.01,2013-01-18 13:57:00,
2013-01-18 09:02:00,32.9,19.4,30.39,NW,316,0.0,0.0,57,0.00,,SKC,0.00,VWS V14.01,2013-01-18 14:02:00,
2013-01-18 09:07:00,33.1,19.1,30.39,NW,316,0.0,0.0,56,0.00,,SKC,0.00,VWS V14.01,2013-01-18 14:07:00,
2013-01-18 09:12:00,33.4,19.4,30.39,WNW,290,0.0,0.0,56,0.00,,SKC,0.00,VWS V14.01,2013-01-18 14:12:00,
2013-01-18 09:17:00,33.5,18.6,30.40,WNW,288,0.0,0.0,54,0.00,,SKC,0.00,VWS V14.01,2013-01-18 14:17:00,
2013-01-18 09:22:00,33.8,18.5,30.40,NW,307,0.0,0.0,53,0.00,,SKC,0.00,VWS V14.01,2013-01-18 14:22:00,
2013-01-18 09:27:00,34.0,19.1,30.40,WSW,247,0.0,0.0,54,0.00,,SKC,0.00,VWS V14.01,2013-01-18 14:27:00,
2013-01-18 09:32:00,34.0,18.7,30.41,WNW,295,0.0,0.0,53,0.00,,SKC,0.00,VWS V14.01,2013-01-18 14:32:00,
2013-01-18 09:37:00,34.3,19.8,30.41,WSW,258,0.0,0.0,55,0.00,,SKC,0.00,VWS V14.01,2013-01-18 14:37:00,
2013-01-18 09:42:00,34.6,18.8,30.41,NW,316,0.0,0.0,52,0.00,,SKC,0.00,VWS V14.01,2013-01-18 14:42:00,
2013-01-18 09:47:00,34.7,18.9,30.42,NW,308,0.0,0.0,52,0.01,,SKC,0.01,VWS V14.01,2013-01-18 14:47:00,
2013-01-18 09:52:00,34.9,18.6,30.42,West,281,0.0,0.0,51,0.01,,SKC,0.01,VWS V14.01,2013-01-18 14:52:00,
2013-01-18 09:57:00,35.0,18.7,30.42,WNW,289,0.0,0.0,51,0.01,,SKC,0.01,VWS V14.01,2013-01-18 14:57:00,
2013-01-18 10:02:00,35.3,18.5,30.43,WNW,287,0.0,0.0,50,0.01,,SKC,0.01,VWS V14.01,2013-01-18 15:02:00,
2013-01-18 10:07:00,35.5,18.7,30.43,WNW,283,0.0,0.0,50,0.01,,SKC,0.01,VWS V14.01,2013-01-18 15:07:00,
2013-01-18 10:12:00,35.6,17.4,30.43,North,356,0.0,0.0,47,0.01,,SKC,0.01,VWS V14.01,2013-01-18 15:12:00,
2013-01-18 10:17:00,36.0,19.6,30.43,North,356,0.0,0.0,51,0.01,,SKC,0.01,VWS V14.01,2013-01-18 15:17:00,
2013-01-18 10:22:00,36.2,17.9,30.43,North,351,0.0,0.0,47,0.01,,SKC,0.01,VWS V14.01,2013-01-18 15:22:00,
2013-01-18 10:27:00,36.3,17.5,30.43,WNW,297,0.0,0.0,46,0.01,,SKC,0.01,VWS V14.01,2013-01-18 15:27:00,
2013-01-18 10:32:00,36.5,18.2,30.44,NNW,332,0.0,0.0,47,0.01,,SKC,0.01,VWS V14.01,2013-01-18 15:32:00,
2013-01-18 10:37:00,36.6,17.8,30.44,WNW,283,0.0,0.0,46,0.01,,SKC,0.01,VWS V14.01,2013-01-18 15:37:00,
2013-01-18 10:42:00,36.6,17.3,30.44,North,4,0.0,0.0,45,0.01,,SKC,0.01,VWS V14.01,2013-01-18 15:42:00,
2013-01-18 10:47:00,36.8,19.0,30.44,North,354,0.0,0.0,48,0.00,,SKC,0.01,VWS V14.01,2013-01-18 15:47:00,
2013-01-18 10:52:00,36.6,18.8,30.44,NNW,329,0.0,0.0,48,0.00,,SKC,0.01,VWS V14.01,2013-01-18 15:52:00,
2013-01-18 10:57:00,36.5,18.7,30.44,WNW,293,0.0,0.0,48,0.00,,SKC,0.01,VWS V14.01,2013-01-18 15:57:00,
2013-01-18 11:02:00,36.2,20.3,30.44,NW,309,0.0,0.0,52,0.00,,SKC,0.01,VWS V14.01,2013-01-18 16:02:00,
2013-01-18 11:07:00,36.2,19.4,30.44,WNW,285,0.0,0.0,50,0.00,,SKC,0.01,VWS V14.01,2013-01-18 16:07:00,
2013-01-18 11:12:00,36.3,20.4,30.44,NW,307,0.0,0.0,52,0.00,,SKC,0.01,VWS V14.01,2013-01-18 16:12:00,
2013-01-18 11:17:00,36.3,20.8,30.45,NW,304,0.0,0.0,53,0.00,,SKC,0.01,VWS V14.01,2013-01-18 16:17:00,
2013-01-18 11:22:00,36.3,20.4,30.45,WNW,303,0.0,0.0,52,0.00,,SKC,0.01,VWS V14.01,2013-01-18 16:22:00,
2013-01-18 11:27:00,36.6,20.2,30.45,West,279,0.0,0.0,51,0.00,,SKC,0.01,VWS V14.01,2013-01-18 16:27:00,
2013-01-18 11:32:00,36.9,20.0,30.45,WNW,302,0.0,0.0,50,0.00,,SKC,0.01,VWS V14.01,2013-01-18 16:32:00,
2013-01-18 11:37:00,37.2,19.3,30.45,North,355,0.0,0.0,48,0.00,,SKC,0.01,VWS V14.01,2013-01-18 16:37:00,
2013-01-18 11:42:00,37.5,20.1,30.45,NW,324,0.0,0.0,49,0.00,,SKC,0.01,VWS V14.01,2013-01-18 16:42:00,
2013-01-18 11:47:00,37.8,20.8,30.44,NW,314,0.0,0.0,50,0.00,,SKC,0.01,VWS V14.01,2013-01-18 16:47:00,
2013-01-18 11:52:00,37.9,19.5,30.44,West,275,0.0,0.0,47,0.00,,SKC,0.01,VWS V14.01,2013-01-18 16:52:00,
2013-01-18 11:57:00,38.2,19.3,30.44,WNW,302,0.0,0.0,46,0.00,,SKC,0.01,VWS V14.01,2013-01-18 16:57:00,
2013-01-18 12:02:00,38.3,20.8,30.44,NW,304,0.0,0.0,49,0.00,,SKC,0.01,VWS V14.01,2013-01-18 17:02:00,
2013-01-18 12:07:00,38.6,21.1,30.44,NW,304,0.0,0.0,49,0.00,,SKC,0.01,VWS V14.01,2013-01-18 17:07:00,
2013-01-18 12:12:00,39.1,20.6,30.44,NW,304,0.0,0.0,47,0.00,,SKC,0.01,VWS V14.01,2013-01-18 17:12:00,
2013-01-18 12:17:00,39.2,19.1,30.43,WNW,300,0.0,0.0,44,0.00,,SKC,0.01,VWS V14.01,2013-01-18 17:17:00,
2013-01-18 12:22:00,39.2,18.0,30.43,WNW,299,0.0,0.0,42,0.00,,SKC,0.01,VWS V14.01,2013-01-18 17:22:00,
2013-01-18 12:27:00,39.2,17.5,30.43,NNW,335,0.0,0.0,41,0.00,,SKC,0.01,VWS V14.01,2013-01-18 17:27:00,
2013-01-18 12:32:00,39.5,20.5,30.43,NNW,333,0.0,0.0,46,0.00,,SKC,0.01,VWS V14.01,2013-01-18 17:32:00,
2013-01-18 12:37:00,39.6,19.5,30.43,WNW,302,0.0,0.0,44,0.00,,SKC,0.01,VWS V14.01,2013-01-18 17:37:00,
2013-01-18 12:42:00,39.8,19.1,30.43,WNW,294,0.0,0.0,43,0.00,,SKC,0.01,VWS V14.01,2013-01-18 17:42:00,
2013-01-18 12:47:00,40.1,19.4,30.42,WNW,302,0.0,0.0,43,0.00,,SKC,0.01,VWS V14.01,2013-01-18 17:47:00,
2013-01-18 12:52:00,40.2,19.0,30.42,WNW,288,0.0,0.0,42,0.00,,SKC,0.01,VWS V14.01,2013-01-18 17:52:00,
2013-01-18 12:57:00,40.2,19.5,30.42,West,259,0.0,0.0,43,0.00,,SKC,0.01,VWS V14.01,2013-01-18 17:57:00,
2013-01-18 13:02:00,40.5,19.8,30.42,NW,320,0.0,0.0,43,0.00,,SKC,0.01,VWS V14.01,2013-01-18 18:02:00,
2013-01-18 13:07:00,40.5,19.2,30.42,WNW,286,0.0,0.0,42,0.00,,SKC,0.01,VWS V14.01,2013-01-18 18:07:00,
2013-01-18 13:12:00,40.6,18.2,30.42,WNW,288,0.0,0.0,40,0.00,,SKC,0.01,VWS V14.01,2013-01-18 18:12:00,
2013-01-18 13:17:00,40.9,18.5,30.41,WNW,286,0.0,0.0,40,0.00,,SKC,0.01,VWS V14.01,2013-01-18 18:17:00,
2013-01-18 13:22:00,41.1,19.8,30.41,WNW,286,0.0,0.0,42,0.00,,SKC,0.01,VWS V14.01,2013-01-18 18:22:00,
2013-01-18 13:27:00,41.5,23.3,30.41,WNW,288,0.0,0.0,48,0.00,,SKC,0.01,VWS V14.01,2013-01-18 18:27:00,
2013-01-18 13:32:00,41.6,26.2,30.41,ESE,106,0.0,0.0,54,0.00,,SKC,0.01,VWS V14.01,2013-01-18 18:32:00,
2013-01-18 13:37:00,41.6,24.8,30.41,ESE,110,0.0,0.0,51,0.00,,SKC,0.01,VWS V14.01,2013-01-18 18:37:00,
2013-01-18 13:42:00,41.3,24.5,30.41,East,96,0.0,0.0,51,0.00,,SKC,0.01,VWS V14.01,2013-01-18 18:42:00,
2013-01-18 13:47:00,41.6,25.3,30.41,East,95,0.0,0.0,52,0.00,,SKC,0.01,VWS V14.01,2013-01-18 18:47:00,
2013-01-18 13:52:00,41.6,23.9,30.41,East,87,0.0,0.0,49,0.00,,SKC,0.01,VWS V14.01,2013-01-18 18:52:00,
2013-01-18 13:57:00,41.6,22.9,30.41,East,87,0.0,0.0,47,0.00,,SKC,0.01,VWS V14.01,2013-01-18 18:57:00,
2013-01-18 14:02:00,41.6,23.4,30.41,East,88,0.0,0.0,48,0.00,,SKC,0.01,VWS V14.01,2013-01-18 19:02:00,
2013-01-18 14:07:00,41.8,24.1,30.41,SW,235,0.0,0.0,49,0.00,,SKC,0.01,VWS V14.01,2013-01-18 19:07:00,
2013-01-18 14:12:00,41.9,24.1,30.41,SW,233,0.0,0.0,49,0.00,,SKC,0.01,VWS V14.01,2013-01-18 19:12:00,
2013-01-18 14:17:00,42.2,22.4,30.41,East,95,0.0,0.0,45,0.00,,SKC,0.01,VWS V14.01,2013-01-18 19:17:00,
2013-01-18 14:22:00,42.5,24.2,30.41,ESE,103,0.0,0.0,48,0.00,,SKC,0.01,VWS V14.01,2013-01-18 19:22:00,
2013-01-18 14:27:00,42.3,26.4,30.41,East,101,0.0,0.0,53,0.00,,SKC,0.01,VWS V14.01,2013-01-18 19:27:00,
2013-01-18 14:32:00,42.2,26.8,30.42,ESE,108,0.0,0.0,54,0.00,,SKC,0.01,VWS V14.01,2013-01-18 19:32:00,
2013-01-18 14:37:00,42.2,26.8,30.42,ESE,108,0.0,0.0,54,0.00,,SKC,0.01,VWS V14.01,2013-01-18 19:37:00,
2013-01-18 14:42:00,42.1,27.5,30.42,ESE,108,0.0,0.0,56,0.00,,SKC,0.01,VWS V14.01,2013-01-18 19:42:00,
2013-01-18 14:47:00,42.3,27.7,30.42,ESE,108,0.0,0.0,56,0.00,,SKC,0.01,VWS V14.01,2013-01-18 19:47:00,
2013-01-18 14:52:00,42.2,25.9,30.42,ESE,102,0.0,0.0,52,0.00,,SKC,0.01,VWS V14.01,2013-01-18 19:52:00,
2013-01-18 14:57:00,42.1,25.8,30.42,ESE,103,0.0,0.0,52,0.01,,SKC,0.02,VWS V14.01,2013-01-18 19:57:00,
2013-01-18 15:02:00,42.1,25.8,30.42,East,101,0.0,0.0,52,0.01,,SKC,0.02,VWS V14.01,2013-01-18 20:02:00,
2013-01-18 15:07:00,42.1,26.2,30.42,East,101,0.0,0.0,53,0.01,,SKC,0.02,VWS V14.01,2013-01-18 20:07:00,
2013-01-18 15:12:00,42.2,25.9,30.42,East,101,0.0,0.0,52,0.01,,SKC,0.02,VWS V14.01,2013-01-18 20:12:00,
2013-01-18 15:17:00,42.3,25.9,30.42,East,101,0.0,0.0,52,0.01,,SKC,0.02,VWS V14.01,2013-01-18 20:17:00,
2013-01-18 15:22:00,42.3,25.9,30.42,East,101,0.0,0.0,52,0.01,,SKC,0.02,VWS V14.01,2013-01-18 20:22:00,
2013-01-18 15:27:00,42.2,26.3,30.42,East,101,0.0,0.0,53,0.01,,SKC,0.02,VWS V14.01,2013-01-18 20:27:00,
2013-01-18 15:32:00,42.3,25.9,30.42,East,101,0.0,0.0,52,0.01,,SKC,0.02,VWS V14.01,2013-01-18 20:32:00,
2013-01-18 15:37:00,42.5,26.1,30.42,East,101,0.0,0.0,52,0.01,,SKC,0.02,VWS V14.01,2013-01-18 20:37:00,
2013-01-18 15:42:00,42.5,26.6,30.42,East,101,0.0,0.0,53,0.01,,SKC,0.02,VWS V14.01,2013-01-18 20:42:00,
2013-01-18 15:47:00,42.5,25.7,30.42,East,101,0.0,0.0,51,0.01,,SKC,0.02,VWS V14.01,2013-01-18 20:47:00,
2013-01-18 15:52:00,42.6,26.2,30.42,East,101,0.0,0.0,52,0.01,,SKC,0.02,VWS V14.01,2013-01-18 20:52:00,
2013-01-18 15:57:00,42.6,26.2,30.42,East,101,0.0,0.0,52,0.01,,SKC,0.02,VWS V14.01,2013-01-18 20:57:00,
2013-01-18 16:02:00,42.6,26.2,30.42,East,101,0.0,0.0,52,0.00,,SKC,0.02,VWS V14.01,2013-01-18 21:02:00,
2013-01-18 16:07:00,42.6,26.2,30.42,East,101,0.0,0.0,52,0.00,,SKC,0.02,VWS V14.01,2013-01-18 21:07:00,
2013-01-18 16:12:00,42.6,26.2,30.42,East,101,0.0,0.0,52,0.00,,SKC,0.02,VWS V14.01,2013-01-18 21:12:00,
2013-01-18 16:17:00,42.6,27.1,30.42,East,101,0.0,0.0,54,0.00,,SKC,0.02,VWS V14.01,2013-01-18 21:17:00,
2013-01-18 16:22:00,42.5,26.1,30.42,East,101,0.0,0.0,52,0.00,,SKC,0.02,VWS V14.01,2013-01-18 21:22:00,
2013-01-18 16:27:00,42.5,26.1,30.42,East,101,0.0,0.0,52,0.00,,SKC,0.02,VWS V14.01,2013-01-18 21:27:00,
2013-01-18 16:32:00,42.3,26.4,30.42,East,101,0.0,0.0,53,0.01,,SKC,0.03,VWS V14.01,2013-01-18 21:32:00,
2013-01-18 16:37:00,42.3,26.4,30.42,East,101,0.0,0.0,53,0.01,,SKC,0.03,VWS V14.01,2013-01-18 21:37:00,
2013-01-18 16:42:00,42.3,26.4,30.42,East,101,0.0,0.0,53,0.01,,SKC,0.03,VWS V14.01,2013-01-18 21:42:00,
2013-01-18 16:47:00,42.2,26.8,30.43,East,101,0.0,0.0,54,0.01,,SKC,0.03,VWS V14.01,2013-01-18 21:47:00,
2013-01-18 16:52:00,42.1,27.1,30.43,East,101,0.0,0.0,55,0.01,,SKC,0.03,VWS V14.01,2013-01-18 21:52:00,
2013-01-18 16:57:00,41.9,26.9,30.43,East,101,0.0,0.0,55,0.01,,SKC,0.03,VWS V14.01,2013-01-18 21:57:00,
2013-01-18 17:02:00,41.8,27.3,30.43,East,101,0.0,0.0,56,0.01,,SKC,0.03,VWS V14.01,2013-01-18 22:02:00,
2013-01-18 17:07:00,41.6,27.1,30.43,East,101,0.0,0.0,56,0.01,,SKC,0.03,VWS V14.01,2013-01-18 22:07:00,
2013-01-18 17:12:00,41.5,27.4,30.43,East,101,0.0,0.0,57,0.01,,SKC,0.03,VWS V14.01,2013-01-18 22:12:00,
2013-01-18 17:17:00,41.2,27.1,30.44,East,101,0.0,0.0,57,0.01,,SKC,0.03,VWS V14.01,2013-01-18 22:17:00,
2013-01-18 17:22:00,40.9,27.3,30.44,East,101,0.0,0.0,58,0.01,,SKC,0.03,VWS V14.01,2013-01-18 22:22:00,
2013-01-18 17:27:00,40.6,27.4,30.44,East,101,0.0,0.0,59,0.01,,SKC,0.03,VWS V14.01,2013-01-18 22:27:00,
2013-01-18 17:32:00,40.1,28.1,30.45,East,101,0.0,0.0,62,0.01,,SKC,0.03,VWS V14.01,2013-01-18 22:32:00,
2013-01-18 17:37:00,39.3,27.8,30.45,East,101,0.0,0.0,63,0.00,,SKC,0.03,VWS V14.01,2013-01-18 22:37:00,
2013-01-18 17:42:00,38.8,27.7,30.45,East,101,0.0,0.0,64,0.00,,SKC,0.03,VWS V14.01,2013-01-18 22:42:00,
2013-01-18 17:47:00,38.3,27.6,30.46,East,101,0.0,0.0,65,0.00,,SKC,0.03,VWS V14.01,2013-01-18 22:47:00,
2013-01-18 17:52:00,38.0,27.7,30.46,East,101,0.0,0.0,66,0.00,,SKC,0.03,VWS V14.01,2013-01-18 22:52:00,
2013-01-18 17:57:00,37.5,28.3,30.46,East,101,0.0,0.0,69,0.00,,SKC,0.03,VWS V14.01,2013-01-18 22:57:00,
2013-01-18 18:02:00,37.0,27.8,30.47,NNE,14,0.0,0.0,69,0.00,,SKC,0.03,VWS V14.01,2013-01-18 23:02:00,
2013-01-18 18:07:00,36.9,27.3,30.47,North,8,0.0,0.0,68,0.00,,SKC,0.03,VWS V14.01,2013-01-18 23:07:00,
2013-01-18 18:12:00,37.0,27.4,30.47,North,3,0.0,0.0,68,0.00,,SKC,0.03,VWS V14.01,2013-01-18 23:12:00,
2013-01-18 18:17:00,36.9,27.7,30.47,North,1,0.0,0.0,69,0.00,,SKC,0.03,VWS V14.01,2013-01-18 23:17:00,
2013-01-18 18:22:00,36.6,27.8,30.47,North,1,0.0,0.0,70,0.00,,SKC,0.03,VWS V14.01,2013-01-18 23:22:00,
2013-01-18 18:27:00,36.3,27.1,30.47,NNW,335,0.0,0.0,69,0.00,,SKC,0.03,VWS V14.01,2013-01-18 23:27:00,
2013-01-18 18:32:00,36.2,27.4,30.48,NNW,335,0.0,0.0,70,0.00,,SKC,0.03,VWS V14.01,2013-01-18 23:32:00,
2013-01-18 18:37:00,35.8,27.7,30.48,NNW,328,0.0,0.0,72,0.00,,SKC,0.03,VWS V14.01,2013-01-18 23:37:00,
2013-01-18 18:42:00,35.3,27.9,30.48,WNW,294,0.0,0.0,74,0.00,,SKC,0.03,VWS V14.01,2013-01-18 23:42:00,
2013-01-18 18:47:00,35.2,27.8,30.48,WNW,290,0.0,0.0,74,0.00,,SKC,0.03,VWS V14.01,2013-01-18 23:47:00,
2013-01-18 18:52:00,35.5,27.0,30.48,WNW,289,0.0,0.0,71,0.00,,SKC,0.03,VWS V14.01,2013-01-18 23:52:00,
2013-01-18 18:57:00,36.0,26.8,30.48,WNW,289,0.0,0.0,69,0.00,,SKC,0.03,VWS V14.01,2013-01-18 23:57:00,
2013-01-18 19:02:00,35.9,27.4,30.49,WNW,289,0.0,0.0,71,0.00,,SKC,0.03,VWS V14.01,2013-01-19 00:02:00,
2013-01-18 19:07:00,35.2,28.1,30.49,WNW,289,0.0,0.0,75,0.00,,SKC,0.03,VWS V14.01,2013-01-19 00:07:00,
2013-01-18 19:12:00,34.6,27.5,30.49,WNW,289,0.0,0.0,75,0.00,,SKC,0.03,VWS V14.01,2013-01-19 00:12:00,
2013-01-18 19:17:00,34.4,27.3,30.49,WNW,289,0.0,0.0,75,0.00,,SKC,0.03,VWS V14.01,2013-01-19 00:17:00,
2013-01-18 19:21:00,34.6,26.5,30.49,WNW,289,0.0,0.0,72,0.00,,SKC,0.03,VWS V14.01,2013-01-19 00:21:00,
2013-01-18 19:26:00,34.6,27.5,30.49,WNW,289,0.0,0.0,75,0.00,,SKC,0.03,VWS V14.01,2013-01-19 00:26:00,
2013-01-18 19:31:00,34.1,27.0,30.49,WNW,289,0.0,0.0,75,0.00,,SKC,0.03,VWS V14.01,2013-01-19 00:31:00,
2013-01-18 19:36:00,33.8,26.4,30.49,WNW,289,0.0,0.0,74,0.00,,SKC,0.03,VWS V14.01,2013-01-19 00:36:00,
2013-01-18 19:41:00,33.7,26.6,30.49,WNW,289,0.0,0.0,75,0.00,,SKC,0.03,VWS V14.01,2013-01-19 00:41:00,
2013-01-18 19:46:00,33.7,26.6,30.49,WNW,289,0.0,0.0,75,0.00,,SKC,0.03,VWS V14.01,2013-01-19 00:46:00,
2013-01-18 19:51:00,33.5,26.4,30.49,WNW,289,0.0,0.0,75,0.00,,SKC,0.03,VWS V14.01,2013-01-19 00:51:00,
2013-01-18 19:56:00,33.5,26.8,30.49,WNW,289,0.0,0.0,76,0.00,,SKC,0.03,VWS V14.01,2013-01-19 00:56:00,
2013-01-18 20:01:00,33.7,26.6,30.49,WNW,289,0.0,0.0,75,0.00,,SKC,0.03,VWS V14.01,2013-01-19 01:01:00,
2013-01-18 20:06:00,33.5,27.1,30.49,WNW,289,0.0,0.0,77,0.00,,SKC,0.03,VWS V14.01,2013-01-19 01:06:00,
2013-01-18 20:11:00,33.5,27.4,30.49,WNW,289,0.0,0.0,78,0.00,,SKC,0.03,VWS V14.01,2013-01-19 01:11:00,
2013-01-18 20:16:00,33.2,27.1,30.49,WNW,289,0.0,0.0,78,0.00,,SKC,0.03,VWS V14.01,2013-01-19 01:16:00,
2013-01-18 20:21:00,33.1,27.3,30.49,WNW,289,0.0,0.0,79,0.00,,SKC,0.03,VWS V14.01,2013-01-19 01:21:00,
2013-01-18 20:26:00,32.5,27.6,30.49,WNW,289,0.0,0.0,82,0.00,,SKC,0.03,VWS V14.01,2013-01-19 01:26:00,
2013-01-18 20:31:00,32.4,27.5,30.49,WNW,289,0.0,0.0,82,0.00,,SKC,0.03,VWS V14.01,2013-01-19 01:31:00,
2013-01-18 20:36:00,32.2,27.0,30.49,WNW,289,0.0,0.0,81,0.00,,SKC,0.03,VWS V14.01,2013-01-19 01:36:00,
2013-01-18 20:41:00,32.2,27.3,30.49,WNW,289,0.0,0.0,82,0.00,,SKC,0.03,VWS V14.01,2013-01-19 01:41:00,
2013-01-18 20:47:00,31.9,27.3,30.48,WNW,289,0.0,0.0,83,0.00,,SKC,0.03,VWS V14.01,2013-01-19 01:47:00,
2013-01-18 20:52:00,31.8,27.2,30.48,WNW,289,0.0,0.0,83,0.00,,SKC,0.03,VWS V14.01,2013-01-19 01:52:00,
2013-01-18 20:57:00,32.1,26.9,30.48,WNW,289,0.0,0.0,81,0.00,,SKC,0.03,VWS V14.01,2013-01-19 01:57:00,
2013-01-18 21:02:00,32.2,27.0,30.48,WNW,289,0.0,0.0,81,0.00,,SKC,0.03,VWS V14.01,2013-01-19 02:02:00,
2013-01-18 21:07:00,32.2,26.7,30.48,WNW,289,0.0,0.0,80,0.00,,SKC,0.03,VWS V14.01,2013-01-19 02:07:00,
2013-01-18 21:12:00,32.2,27.0,30.48,WNW,289,0.0,0.0,81,0.00,,SKC,0.03,VWS V14.01,2013-01-19 02:12:00,
2013-01-18 21:17:00,31.9,26.7,30.48,WNW,289,0.0,0.0,81,0.00,,SKC,0.03,VWS V14.01,2013-01-19 02:17:00,
2013-01-18 21:22:00,31.5,26.6,30.48,WNW,289,0.0,0.0,82,0.00,,SKC,0.03,VWS V14.01,2013-01-19 02:22:00,
2013-01-18 21:27:00,31.3,26.5,30.48,WNW,289,0.0,0.0,82,0.00,,SKC,0.03,VWS V14.01,2013-01-19 02:27:00,
2013-01-18 21:32:00,31.3,26.5,30.48,WNW,289,0.0,0.0,82,0.00,,SKC,0.03,VWS V14.01,2013-01-19 02:32:00,
2013-01-18 21:37:00,31.2,26.6,30.48,WNW,289,0.0,0.0,83,0.00,,SKC,0.03,VWS V14.01,2013-01-19 02:37:00,
2013-01-18 21:42:00,31.2,26.9,30.48,WNW,289,0.0,0.0,84,0.00,,SKC,0.03,VWS V14.01,2013-01-19 02:42:00,
2013-01-18 21:47:00,31.3,26.8,30.48,WNW,289,0.0,0.0,83,0.00,,SKC,0.03,VWS V14.01,2013-01-19 02:47:00,
2013-01-18 21:52:00,31.3,26.8,30.48,WNW,289,0.0,0.0,83,0.00,,SKC,0.03,VWS V14.01,2013-01-19 02:52:00,
2013-01-18 21:57:00,31.2,26.6,30.48,WNW,289,0.0,0.0,83,0.00,,SKC,0.03,VWS V14.01,2013-01-19 02:57:00,
2013-01-18 22:02:00,31.2,26.9,30.48,WNW,289,0.0,0.0,84,0.00,,SKC,0.03,VWS V14.01,2013-01-19 03:02:00,
2013-01-18 22:07:00,31.0,26.7,30.48,WNW,289,0.0,0.0,84,0.00,,SKC,0.03,VWS V14.01,2013-01-19 03:07:00,
2013-01-18 22:12:00,30.7,26.7,30.48,WNW,289,0.0,0.0,85,0.00,,SKC,0.03,VWS V14.01,2013-01-19 03:12:00,
2013-01-18 22:17:00,30.6,26.9,30.48,WNW,289,0.0,0.0,86,0.00,,SKC,0.03,VWS V14.01,2013-01-19 03:17:00,
2013-01-18 22:22:00,30.6,26.9,30.48,WNW,289,0.0,0.0,86,0.00,,SKC,0.03,VWS V14.01,2013-01-19 03:22:00,
2013-01-18 22:27:00,30.6,26.9,30.48,WNW,289,0.0,0.0,86,0.00,,SKC,0.03,VWS V14.01,2013-01-19 03:27:00,
2013-01-18 22:32:00,30.6,26.9,30.48,WNW,289,0.0,0.0,86,0.00,,SKC,0.03,VWS V14.01,2013-01-19 03:32:00,
2013-01-18 22:37:00,30.6,26.9,30.48,WNW,289,0.0,0.0,86,0.00,,SKC,0.03,VWS V14.01,2013-01-19 03:37:00,
2013-01-18 22:42:00,30.4,27.0,30.48,WNW,289,0.0,0.0,87,0.00,,SKC,0.03,VWS V14.01,2013-01-19 03:42:00,
2013-01-18 22:47:00,30.1,26.7,30.48,WNW,289,0.0,0.0,87,0.00,,SKC,0.03,VWS V14.01,2013-01-19 03:47:00,
2013-01-18 22:52:00,29.8,26.7,30.48,WNW,289,0.0,0.0,88,0.00,,SKC,0.03,VWS V14.01,2013-01-19 03:52:00,
2013-01-18 22:57:00,29.7,26.9,30.48,WNW,289,0.0,0.0,89,0.00,,SKC,0.03,VWS V14.01,2013-01-19 03:57:00,
2013-01-18 23:02:00,29.7,26.9,30.47,WNW,289,0.0,0.0,89,0.00,,SKC,0.03,VWS V14.01,2013-01-19 04:02:00,
2013-01-18 23:07:00,29.5,26.7,30.47,WNW,289,0.0,0.0,89,0.00,,SKC,0.03,VWS V14.01,2013-01-19 04:07:00,
2013-01-18 23:12:00,29.5,26.9,30.47,WNW,289,0.0,0.0,90,0.00,,SKC,0.03,VWS V14.01,2013-01-19 04:12:00,
2013-01-18 23:17:00,29.5,26.9,30.47,WNW,289,0.0,0.0,90,0.00,,SKC,0.03,VWS V14.01,2013-01-19 04:17:00,
2013-01-18 23:22:00,29.5,26.9,30.47,WNW,289,0.0,0.0,90,0.00,,SKC,0.03,VWS V14.01,2013-01-19 04:22:00,
2013-01-18 23:27:00,29.7,26.9,30.47,WNW,289,0.0,0.0,89,0.00,,SKC,0.03,VWS V14.01,2013-01-19 04:27:00,
2013-01-18 23:32:00,29.8,27.0,30.47,WNW,289,0.0,0.0,89,0.00,,SKC,0.03,VWS V14.01,2013-01-19 04:32:00,
2013-01-18 23:37:00,29.8,26.7,30.47,WNW,289,0.0,0.0,88,0.00,,SKC,0.03,VWS V14.01,2013-01-19 04:37:00,
2013-01-18 23:42:00,29.8,26.7,30.47,WNW,289,0.0,0.0,88,0.00,,SKC,0.03,VWS V14.01,2013-01-19 04:42:00,
2013-01-18 23:47:00,29.8,26.7,30.46,WNW,289,0.0,0.0,88,0.00,,SKC,0.03,VWS V14.01,2013-01-19 04:47:00,
2013-01-18 23:52:00,30.0,26.6,30.46,WNW,289,0.0,0.0,87,0.00,,SKC,0.03,VWS V14.01,2013-01-19 04:52:00,
2013-01-18 23:57:00,30.0,26.6,30.46,WNW,289,0.0,0.0,87,0.00,,SKC,0.03,VWS V14.01,2013-01-19 04:57:00,